| time (UTC) | temp F | wind direction | speed knots | gust knots | rain 1hr in | rain 24hr in | rain mn in | humidity % | barometer mb |
| 20260505200332 | 74 | 176 | 12.2 | 23.5 | 0.00 | 0.00 | 0.00 | 49 | 1003.9 |
| 20260505200103 | 73 | 212 | 8.7 | 16.5 | 0.00 | 0.00 | 0.00 | 49 | 1003.5 |
| 20260505195331 | 74 | 195 | 9.6 | 20.0 | 0.00 | 0.00 | 0.00 | 50 | 1004.0 |
| 20260505194510 | 73 | 201 | 8.7 | 20.0 | 0.00 | 0.00 | 0.00 | 50 | 1003.6 |
| 20260505194345 | 74 | 177 | 9.6 | 20.0 | 0.00 | 0.00 | 0.00 | 50 | 1004.0 |
| 20260505193322 | 74 | 189 | 11.3 | 17.4 | 0.00 | 0.00 | 0.00 | 49 | 1004.4 |
| 20260505193003 | 74 | 233 | 9.6 | 19.1 | 0.00 | 0.00 | 0.00 | 49 | 1004.0 |
| 20260505192315 | 75 | 235 | 6.1 | 18.2 | 0.00 | 0.00 | 0.00 | 49 | 1004.4 |
| 20260505191531 | 75 | 150 | 9.6 | 18.2 | 0.00 | 0.00 | 0.00 | 49 | 1004.2 |
| 20260505191334 | 75 | 181 | 9.6 | 18.2 | 0.00 | 0.00 | 0.00 | 50 | 1004.5 |
| 20260505190325 | 74 | 201 | 12.2 | 19.1 | 0.00 | 0.00 | 0.00 | 49 | 1004.6 |
| 20260505190045 | 74 | 190 | 9.6 | 19.1 | 0.00 | 0.00 | 0.00 | 50 | 1004.5 |
| 20260505185318 | 75 | 186 | 5.2 | 21.7 | 0.00 | 0.00 | 0.00 | 49 | 1005.0 |
| 20260505184513 | 75 | 202 | 9.6 | 21.7 | 0.00 | 0.00 | 0.00 | 48 | 1004.7 |
| 20260505184321 | 75 | 205 | 7.8 | 17.4 | 0.00 | 0.00 | 0.00 | 48 | 1005.0 |
| 20260505183317 | 75 | 194 | 7.0 | 14.8 | 0.00 | 0.00 | 0.00 | 48 | 1005.2 |
| 20260505183038 | 75 | 246 | 7.0 | 14.8 | 0.00 | 0.00 | 0.00 | 49 | 1004.8 |
| 20260505182313 | 74 | 184 | 9.6 | 16.5 | 0.00 | 0.00 | 0.00 | 49 | 1005.0 |
| 20260505181503 | 74 | 143 | 9.6 | 16.5 | 0.00 | 0.00 | 0.00 | 49 | 1005.0 |
| 20260505181315 | 75 | 188 | 11.3 | 18.2 | 0.00 | 0.00 | 0.00 | 49 | 1005.3 |
| 20260505180335 | 77 | 109 | 8.7 | 14.8 | 0.00 | 0.00 | 0.00 | 47 | 1005.3 |
| 20260505180020 | 77 | 166 | 7.0 | 14.8 | 0.00 | 0.00 | 0.00 | 46 | 1005.1 |
| 20260505175328 | 78 | 263 | 8.7 | 18.2 | 0.00 | 0.00 | 0.00 | 44 | 1005.5 |
| 20260505174553 | 76 | 288 | 7.0 | 18.2 | 0.00 | 0.00 | 0.00 | 45 | 1005.1 |
| 20260505174316 | 77 | 232 | 7.0 | 21.7 | 0.00 | 0.00 | 0.00 | 46 | 1005.5 |
| 20260505173314 | 76 | 234 | 7.0 | 17.4 | 0.00 | 0.00 | 0.00 | 46 | 1005.6 |
| 20260505173059 | 76 | 251 | 7.0 | 17.4 | 0.00 | 0.00 | 0.00 | 45 | 1005.4 |
| 20260505172352 | 76 | 242 | 8.7 | 17.4 | 0.00 | 0.00 | 0.00 | 47 | 1005.8 |
| 20260505171506 | 75 | 210 | 8.7 | 18.2 | 0.00 | 0.00 | 0.00 | 45 | 1005.6 |
| 20260505171344 | 76 | 177 | 8.7 | 18.2 | 0.00 | 0.00 | 0.00 | 45 | 1005.8 |
| 20260505170319 | 75 | 266 | 6.1 | 17.4 | 0.00 | 0.00 | 0.00 | 48 | 1006.1 |
| 20260505170056 | 75 | 284 | 10.4 | 17.4 | 0.00 | 0.00 | 0.00 | 45 | 1005.8 |
| 20260505165353 | 75 | 279 | 5.2 | 20.0 | 0.00 | 0.00 | 0.00 | 49 | 1006.3 |
| 20260505164617 | 74 | 272 | 7.8 | 15.6 | 0.00 | 0.00 | 0.00 | 48 | 1006.3 |
| 20260505164321 | 74 | 263 | 4.3 | 18.2 | 0.00 | 0.00 | 0.00 | 48 | 1006.7 |
| 20260505163314 | 74 | 237 | 11.3 | 21.7 | 0.00 | 0.00 | 0.00 | 47 | 1007.0 |
| 20260505163010 | 73 | 239 | 5.2 | 13.0 | 0.00 | 0.00 | 0.00 | 50 | 1006.8 |
| 20260505162329 | 73 | 213 | 4.3 | 15.6 | 0.00 | 0.00 | 0.00 | 49 | 1007.0 |
| 20260505161535 | 72 | 226 | 7.0 | 16.5 | 0.00 | 0.00 | 0.00 | 48 | 1007.0 |
| 20260505161329 | 73 | 249 | 8.7 | 15.6 | 0.00 | 0.00 | 0.00 | 49 | 1007.2 |
| 20260505160339 | 72 | 224 | 8.7 | 15.6 | 0.00 | 0.00 | 0.00 | 49 | 1007.1 |
| 20260505153323 | 70 | 265 | 7.8 | 19.1 | 0.00 | 0.00 | 0.00 | 51 | 1007.7 |
| 20260505153002 | 70 | 293 | 9.6 | 17.4 | 0.00 | 0.00 | 0.00 | 51 | 1007.7 |
| 20260505152312 | 69 | 279 | 7.0 | 15.6 | 0.00 | 0.00 | 0.00 | 53 | 1007.9 |
| 20260505151523 | 68 | 261 | 6.1 | 13.9 | 0.00 | 0.00 | 0.00 | 54 | 1007.7 |
| 20260505151328 | 68 | 197 | 6.1 | 9.6 | 0.00 | 0.00 | 0.00 | 54 | 1007.9 |
| 20260505150319 | 67 | 230 | 7.8 | 12.2 | 0.00 | 0.00 | 0.00 | 55 | 1008.2 |
| 20260505140333 | 65 | 213 | 7.0 | 10.4 | 0.00 | 0.00 | 0.00 | 55 | 1007.7 |
| 20260505124601 | 58 | 196 | 2.6 | 10.4 | 0.00 | 0.00 | 0.00 | 63 | 1008.1 |
| 20260505124327 | 59 | 179 | 5.2 | 10.4 | 0.00 | 0.00 | 0.00 | 62 | 1008.1 |
| 20260505123344 | 58 | 176 | 4.3 | 8.7 | 0.00 | 0.00 | 0.00 | 63 | 1007.9 |
| 20260505123047 | 57 | 153 | 5.2 | 8.7 | 0.00 | 0.00 | 0.00 | 64 | 1008.0 |
| 20260505122314 | 58 | 169 | 6.1 | 7.8 | 0.00 | 0.00 | 0.00 | 64 | 1008.1 |
| 20260505121512 | 57 | 238 | 3.5 | 10.4 | 0.00 | 0.00 | 0.00 | 65 | 1008.2 |
| 20260505121313 | 57 | 179 | 3.5 | 10.4 | 0.00 | 0.00 | 0.00 | 66 | 1008.3 |
| 20260505120327 | 57 | 189 | 6.1 | 7.8 | 0.00 | 0.00 | 0.00 | 64 | 1008.4 |
| 20260505120028 | 56 | 202 | 3.5 | 7.0 | 0.00 | 0.00 | 0.00 | 65 | 1008.3 |
| 20260505115324 | 56 | 257 | 2.6 | 7.8 | 0.00 | 0.00 | 0.00 | 67 | 1008.4 |
| 20260505114556 | 55 | 227 | 3.5 | 7.8 | 0.00 | 0.00 | 0.00 | 67 | 1008.4 |
| 20260505114319 | 55 | 186 | 3.5 | 7.8 | 0.00 | 0.00 | 0.00 | 66 | 1008.4 |
| 20260505113337 | 55 | 224 | 3.5 | 7.0 | 0.00 | 0.00 | 0.00 | 68 | 1008.3 |
| 20260505113012 | 54 | 200 | 4.3 | 7.0 | 0.00 | 0.00 | 0.00 | 68 | 1008.3 |
| 20260505112352 | 53 | 234 | 4.3 | 9.6 | 0.00 | 0.00 | 0.00 | 70 | 1008.5 |